This demonstration page uses our WeatherBlox Daily Observations layout. Learn more.

Hourly Observations for January 10, 2016

Temp ( °F °C ) Dew Point ( °F °C ) Humidity (%) Winds ( mph kmh ) Pressure ( in mb ) Visibility ( mi km ) Precip ( " mm )
12:15 am 00:15 Clear -4 -20 -8 -22 84 84 N 7 11 30.53 1034 10 16.09344 0 0
12:35 am 00:35 Clear -4 -20 -8 -22 84 84 N 5 7 30.53 1034 10 16.09344 0 0
12:55 am 00:55 Clear -4 -20 -8 -22 84 84 Calm 30.53 1034 10 16.09344 0 0
1:15 am 01:15 Clear -4 -20 -8 -22 84 84 Calm 30.53 1034 10 16.09344 0 0
1:35 am 01:35 Clear -4 -20 -8 -22 84 84 Calm 30.53 1034 10 16.09344 0 0
1:55 am 01:55 Clear -6 -21 -9 -23 84 84 NNE 3 6 30.5 1033 10 16.09344 0 0
2:15 am 02:15 Clear -4 -20 -8 -22 84 84 NNE 3 6 30.5 1033 10 16.09344 0 0
2:35 am 02:35 Clear -9 -23 -13 -25 84 84 Calm 30.53 1034 10 16.09344 0 0
2:55 am 02:55 Clear -6 -21 -8 -22 92 92 W 3 6 30.5 1033 10 16.09344 0 0
3:15 am 03:15 Clear -6 -21 -11 -24 77 77 Calm 30.53 1034 10 16.09344 0 0
3:35 am 03:35 Clear -6 -21 -9 -23 84 84 WSW 3 6 30.5 1033 10 16.09344 0 0
3:55 am 03:55 Clear -4 -20 -8 -22 84 84 Calm 30.5 1033 10 16.09344 0 0
4:15 am 04:15 Clear -4 -20 -8 -22 84 84 W 3 6 30.5 1033 10 16.09344 0 0
4:35 am 04:35 Clear -8 -22 -13 -25 77 77 W 3 6 30.53 1034 10 16.09344 0 0
4:55 am 04:55 Clear -4 -20 -9 -23 77 77 Calm 30.5 1033 10 16.09344 0 0
5:15 am 05:15 Clear -6 -21 -9 -23 84 84 Calm 30.5 1033 10 16.09344 0 0
5:35 am 05:35 Clear -4 -20 -9 -23 77 77 Calm 30.5 1033 10 16.09344 0 0
5:55 am 05:55 Clear -4 -20 -8 -22 84 84 Calm 30.5 1033 10 16.09344 0 0
6:15 am 06:15 Clear -4 -20 -8 -22 84 84 Calm 30.5 1033 10 16.09344 0 0
6:35 am 06:35 Clear -2 -19 -6 -21 84 84 Calm 30.5 1033 10 16.09344 0 0
6:55 am 06:55 Clear 0 -18 -6 -21 78 78 Calm 30.45 1031 10 16.09344 0 0
7:15 am 07:15 Clear 0 -18 -4 -20 84 84 SW 3 6 30.45 1031 10 16.09344 0 0
7:35 am 07:35 Clear 0 -18 -4 -20 84 84 SW 3 6 30.45 1031 10 16.09344 0 0
7:55 am 07:55 Clear 0 -18 -4 -20 84 84 SW 6 9 30.45 1031 10 16.09344 0 0
8:15 am 08:15 Sunny 1 -17 -2 -19 85 85 SW 7 11 30.45 1031 10 16.09344 0 0
8:35 am 08:35 Sunny 3 -16 0 -18 85 85 SW 6 9 30.42 1030 10 16.09344 0 0
8:55 am 08:55 Sunny 5 -15 1 -17 85 85 SW 8 13 30.42 1030 10 16.09344 0 0
9:15 am 09:15 Mostly Cloudy 7 -14 3 -16 85 85 SSW 7 11 30.39 1029 10 16.09344 0 0
9:35 am 09:35 Cloudy 9 -13 5 -15 85 85 SW 7 11 30.36 1028 10 16.09344 0 0
9:55 am 09:55 Cloudy 10 -12 7 -14 85 85 SW 7 11 30.36 1028 10 16.09344 0 0
10:15 am 10:15 Mostly Cloudy 12 -11 9 -13 85 85 SW 7 11 30.33 1027 10 16.09344 0 0
10:35 am 10:35 Sunny 12 -11 9 -13 85 85 SSW 9 15 30.33 1027 10 16.09344 0 0
10:55 am 10:55 Sunny 14 -10 10 -12 85 85 SSW 13 20 30.33 1027 10 16.09344 0 0
11:15 am 11:15 Sunny 14 -10 10 -12 85 85 WSW 10 17 30.33 1027 10 16.09344 0 0
11:35 am 11:35 Sunny 16 -9 12 -11 86 86 SW 12 19 30.33 1027 10 16.09344 0 0
11:55 am 11:55 Sunny 18 -8 12 -11 79 79 SW 9 15 30.3 1026 10 16.09344 0 0
12:15 pm 12:15 Sunny 18 -8 12 -11 79 79 SW 14 22 30.27 1025 10 16.09344 0 0
12:35 pm 12:35 Sunny 19 -7 14 -10 79 79 SW 12 19 30.27 1025 10 16.09344 0 0
12:55 pm 12:55 Sunny 21 -6 16 -9 80 80 SW 12 19 30.24 1024 10 16.09344 0 0
1:15 pm 13:15 Sunny 23 -5 16 -9 74 74 SW 9 15 30.21 1023 10 16.09344 0 0
1:35 pm 13:35 Sunny 25 -4 18 -8 74 74 SW 9 15 30.21 1023 10 16.09344 0 0
1:55 pm 13:55 Sunny 27 -3 19 -7 74 74 SW 10 17 30.15 1021 10 16.09344 0 0
2:15 pm 14:15 Sunny 27 -3 19 -7 74 74 SW 9 15 30.15 1021 10 16.09344 0 0
2:35 pm 14:35 Sunny 28 -2 19 -7 69 69 SW 10 17 30.15 1021 10 16.09344 0 0
2:55 pm 14:55 Sunny 28 -2 21 -6 74 74 SW 9 15 30.15 1021 10 16.09344 0 0
3:15 pm 15:15 Sunny 30 -1 21 -6 69 69 WSW 8 13 30.15 1021 10 16.09344 0 0
3:35 pm 15:35 Sunny 30 -1 21 -6 69 69 WSW 8 13 30.15 1021 10 16.09344 0 0
3:55 pm 15:55 Sunny 30 -1 21 -6 69 69 SW 7 11 30.15 1021 10 16.09344 0 0
4:15 pm 16:15 Sunny 30 -1 21 -6 69 69 SW 5 7 30.12 1020 10 16.09344 0 0
4:35 pm 16:35 Sunny 30 -1 21 -6 69 69 SW 3 6 30.12 1020 10 16.09344 0 0
4:55 pm 16:55 Sunny 30 -1 21 -6 69 69 SSW 5 7 30.12 1020 10 16.09344 0 0
5:15 pm 17:15 Sunny 30 -1 23 -5 75 75 SSW 6 9 30.12 1020 10 16.09344 0 0
5:35 pm 17:35 Clear 28 -2 21 -6 74 74 SW 7 11 30.12 1020 10 16.09344 0 0
5:55 pm 17:55 Partly Cloudy 27 -3 21 -6 80 80 SW 7 11 30.12 1020 10 16.09344 0 0
6:15 pm 18:15 Clear 27 -3 21 -6 80 80 SW 8 13 30.12 1020 10 16.09344 0 0
6:35 pm 18:35 Clear 27 -3 21 -6 80 80 SW 6 9 30.12 1020 10 16.09344 0 0
6:55 pm 18:55 Clear 25 -4 19 -7 80 80 SW 6 9 30.15 1021 10 16.09344 0 0
7:15 pm 19:15 Clear 25 -4 19 -7 80 80 SW 5 7 30.15 1021 10 16.09344 0 0
7:35 pm 19:35 Clear 27 -3 19 -7 74 74 SW 6 9 30.12 1020 10 16.09344 0 0
7:55 pm 19:55 Clear 27 -3 19 -7 74 74 W 6 9 30.12 1020 10 16.09344 0 0
8:15 pm 20:15 Clear 28 -2 19 -7 69 69 W 9 15 30.12 1020 10 16.09344 0 0
8:35 pm 20:35 Clear 28 -2 18 -8 64 64 W 9 15 30.12 1020 10 16.09344 0 0
8:55 pm 20:55 Clear 30 -1 18 -8 59 59 W 12 19 30.12 1020 10 16.09344 0 0
9:15 pm 21:15 Clear 30 -1 18 -8 59 59 W 12 19 30.12 1020 10 16.09344 0 0
9:35 pm 21:35 Clear 28 -2 18 -8 64 64 W 10 17 30.12 1020 10 16.09344 0 0
9:55 pm 21:55 Clear 27 -3 18 -8 69 69 W 12 19 30.12 1020 10 16.09344 0 0
10:15 pm 22:15 Clear 27 -3 16 -9 64 64 W 10 17 30.09 1019 10 16.09344 0 0
10:35 pm 22:35 Clear 27 -3 18 -8 69 69 W 9 15 30.09 1019 10 16.09344 0 0
10:55 pm 22:55 Clear 25 -4 16 -9 69 69 W 10 17 30.12 1020 10 16.09344 0 0
11:15 pm 23:15 Clear 25 -4 16 -9 69 69 W 12 19 30.12 1020 10 16.09344 0 0
11:35 pm 23:35 Clear 25 -4 16 -9 69 69 W 10 17 30.12 1020 10 16.09344 0 0
11:55 pm 23:55 Clear 25 -4 16 -9 69 69 W 12 19 30.12 1020 10 16.09344 0 0

Powered by AerisWeather